Find Starlink 11415

NORAD ID: 62592 Int'l Des: 2025-008 Owner: SPXS Country: US Constellation: starlink operational
LEOCIRCULAR

現在のビュー

3D地球を読み込み中...

About Starlink 11415

Starlink 11415 (NORAD 62592) is a starlink constellation satellite (v2 mini d2c) launched Jan 13, 2025 by SPXS of US. It operates in LEO, CIRCULAR orbit with a mass of 960.00 kg.

Starlink 11415について

説明を読み込み中...

次回通過

Passes for default location (London). Set your location on the main map for personalized predictions.

高度履歴

Loading altitude history...

軌道要素

1 62592U 25008F 26170.57162213 .00103759 00000-0 80095-3 0 9992
2 62592 43.0007 232.4113 0001440 272.6828 87.3875 15.70872702 83244
Epoch: Jun 19, 2026 • Age: 19 hours

現在のステータス

高度 359.4 km
速度 7.69 km/s
衛星直下点 -17.89°S, 25.57°E
打ち上げ日 Jan 13, 2025
運用期間 1.4 years
タイプ internet

技術仕様

分類 Payload
質量 960.00 kg
乾燥質量 910.00 kg
総質量 960.00 kg
長さ 0.30 m
直径 4.10 m
スパン 29.00 m
形状 Box + pan
製造者 SPXS
バスタイプ Starlink V2MD
フェーズステータス In Orbit
所有者/国 SPXS/US

Most Searched